date,time edt,temp c,spcond (ms/cm),ph,do (mg/l),do (%),turbidity (fnu),chlorophyll (rfu),phycocyanin (rfu)
05/31/2022,10:15,20.77,.89,8.29,7.93,88.8,.44,.2,.28
05/31/2022,10:30,21.02,.89,8.29,7.89,88.8,.55,.19,.3
05/31/2022,12:45,24.11,5.32,7.75,8.7,105.2,4.27,5.76,.72
05/31/2022,13:00,24.21,5.28,7.77,8.75,106,4.34,5.9,.73
05/31/2022,13:15,24.25,5.32,7.79,8.85,107.4,4.31,5.9,.77
05/31/2022,13:30,24.37,5.28,7.8,8.89,108.1,4.46,6.03,.76
05/31/2022,13:45,24.36,5.34,7.83,9.03,109.8,4.72,6.15,.77
05/31/2022,14:00,24.44,5.31,7.84,9.08,110.5,4.57,6.27,.79
05/31/2022,14:15,24.46,5.33,7.86,9.14,111.3,4.77,6.18,.77
05/31/2022,14:30,24.48,5.33,7.88,9.22,112.3,4.94,6.29,.8
05/31/2022,14:45,24.5,5.35,7.89,9.28,113,5.01,6.39,.8
05/31/2022,15:00,24.53,5.37,7.9,9.35,114,4.91,6.6,.82
05/31/2022,15:15,24.56,5.36,7.92,9.4,114.7,5.26,6.47,.85
05/31/2022,15:30,24.58,5.36,7.9,9.33,113.9,5.33,6.69,.86
05/31/2022,15:45,24.59,5.34,7.88,9.28,113.3,5.46,6.68,.83
05/31/2022,16:00,24.59,5.3,7.88,9.27,113.2,5.42,6.55,.79
05/31/2022,16:15,24.59,5.28,7.89,9.3,113.4,5.61,6.72,.81
05/31/2022,16:30,24.59,5.27,7.89,9.28,113.3,5.57,6.56,.82
05/31/2022,16:45,24.58,5.28,7.88,9.24,112.8,5.67,6.57,.84
05/31/2022,17:00,24.56,5.3,7.9,9.3,113.5,5.16,6.9,.84
05/31/2022,17:15,24.52,5.3,7.93,9.42,114.8,5.29,6.67,.83
05/31/2022,17:30,24.5,5.33,7.94,9.49,115.7,5.14,7.2,.89
05/31/2022,17:45,24.48,5.35,7.95,9.51,115.8,5.25,6.98,.9
05/31/2022,18:00,24.44,5.38,7.95,9.53,116.1,5.44,7.03,.87
05/31/2022,18:15,24.4,5.4,7.96,9.53,116,5.28,7.76,.97
05/31/2022,18:30,24.37,5.42,7.97,9.57,116.4,5.43,7.21,.9
05/31/2022,18:45,24.35,5.44,7.97,9.57,116.4,5.38,7.49,.9
05/31/2022,19:00,24.39,5.46,7.95,9.51,115.7,5.58,7.44,.97
05/31/2022,19:15,24.34,5.46,7.94,9.46,115,5.67,7.92,.96
05/31/2022,19:30,24.27,5.44,7.93,9.41,114.3,5.51,7.89,.97
05/31/2022,19:45,24.23,5.47,7.92,9.36,113.6,5.33,8.63,.92
05/31/2022,20:00,24.23,5.48,7.89,9.25,112.2,5.22,8.85,1.13
05/31/2022,20:15,24.16,5.48,7.89,9.23,111.9,5.51,8.83,1.07
05/31/2022,20:30,24.12,5.48,7.9,9.26,112.1,5.75,10.01,1.13
05/31/2022,20:45,24.07,5.47,7.9,9.24,111.8,5.7,8.84,1.14
05/31/2022,21:00,24.03,5.47,7.88,9.16,110.7,5.67,9.05,1.14
05/31/2022,21:15,23.94,5.46,7.88,9.13,110.1,5.08,8.99,1.14
05/31/2022,21:30,23.88,5.45,7.88,9.1,109.7,5.52,8.96,1.14
05/31/2022,21:45,23.84,5.44,7.84,8.96,107.9,5.85,8.43,1.06
05/31/2022,22:00,23.82,5.42,7.79,8.7,104.7,5.77,8.07,1.03
05/31/2022,22:15,23.77,5.42,7.77,8.61,103.6,5.9,8.35,.94
05/31/2022,22:30,23.76,5.4,7.74,8.44,101.5,6.14,7.26,.95
05/31/2022,22:45,23.75,5.41,7.74,8.43,101.4,6.49,7.88,1.03
05/31/2022,23:00,23.69,5.41,7.72,8.34,100.2,5.99,7.54,.98
05/31/2022,23:15,23.67,5.41,7.71,8.27,99.3,6.35,7.47,.97
05/31/2022,23:30,23.62,5.41,7.71,8.25,98.9,6.62,6.98,.93
05/31/2022,23:45,23.6,5.41,7.7,8.19,98.2,6.05,7.57,.97
06/01/2022,00:00,23.55,5.41,7.69,8.13,97.4,6.15,7.52,.99
06/01/2022,00:15,23.53,5.41,7.67,8.03,96.1,6.68,6.97,.89
06/01/2022,00:30,23.49,5.4,7.66,7.94,94.9,6.75,7.17,.9
06/01/2022,00:45,23.48,5.41,7.65,7.89,94.4,6.39,7.11,.94
06/01/2022,01:00,23.41,5.38,7.64,7.8,93.1,6.23,6.32,.79
06/01/2022,01:15,23.38,5.38,7.63,7.75,92.5,5.73,6.27,.84
06/01/2022,01:30,23.36,5.38,7.63,7.72,92.1,6.14,6.14,.83
06/01/2022,01:45,23.34,5.39,7.63,7.71,92,5.57,6.13,.84
06/01/2022,02:00,23.27,5.39,7.61,7.6,90.6,5.64,6.01,.78
06/01/2022,02:15,23.26,5.4,7.62,7.64,91.1,5.75,6.16,.8
06/01/2022,02:30,23.23,5.41,7.62,7.6,90.4,5.61,6.45,.81
06/01/2022,02:45,23.2,5.41,7.62,7.61,90.5,5.61,5.89,.76
06/01/2022,03:00,23.16,5.42,7.62,7.6,90.4,5.7,6.32,.81
06/01/2022,03:15,23.09,5.41,7.61,7.55,89.7,5.85,5.82,.75
06/01/2022,03:30,23.09,5.44,7.62,7.6,90.3,5.22,6.53,.81
06/01/2022,03:45,23.04,5.44,7.61,7.52,89.2,5.46,6.24,.81
06/01/2022,04:00,23.01,5.46,7.61,7.49,88.8,5.58,6.54,.84
06/01/2022,04:15,22.95,5.45,7.61,7.48,88.6,5.3,6.52,.77
06/01/2022,04:30,22.9,5.46,7.6,7.43,88,5.52,6.39,.81
06/01/2022,04:45,22.8,5.4,7.6,7.42,87.7,4.6,5.93,.77
06/01/2022,05:00,22.77,5.4,7.6,7.42,87.6,4.79,6.24,.79
06/01/2022,05:15,22.73,5.4,7.59,7.38,87,4.83,5.95,.74
06/01/2022,05:30,22.64,5.27,7.58,7.33,86.3,4.45,5.64,.64
06/01/2022,05:45,22.58,5.19,7.55,7.19,84.5,4.22,4.57,.55
06/01/2022,06:00,22.57,5.16,7.53,7.01,82.3,4.23,4.38,.53
06/01/2022,06:15,22.59,5.16,7.52,6.95,81.7,3.87,4.34,.54
06/01/2022,06:30,22.41,4.93,7.52,7.04,82.4,3.44,3.52,.45
06/01/2022,06:45,22.26,4.78,7.53,7.11,83,2.95,3.34,.44
06/01/2022,07:00,22.2,4.67,7.53,7.09,82.6,2.86,3.05,.41
06/01/2022,07:15,22.08,4.48,7.52,7.07,82.1,2.7,3.01,.37
06/01/2022,07:30,22.26,4.71,7.55,7.22,84.3,3.26,3.69,.45
06/01/2022,07:45,22.24,4.73,7.54,7.15,83.4,3.23,3.9,.47
06/01/2022,08:00,22.14,4.68,7.53,7.08,82.4,2.94,3.67,.42
06/01/2022,08:15,22.01,4.58,7.53,7.11,82.5,2.88,3.42,.39
06/01/2022,08:30,21.9,4.41,7.54,7.21,83.4,2.72,3.35,.4
06/01/2022,08:45,21.92,4.17,7.53,7.23,83.6,2.65,3.05,.37
06/01/2022,09:00,21.88,4.11,7.52,7.16,82.7,2.5,2.78,.33
06/01/2022,09:15,21.89,4.06,7.51,7.07,81.7,2.47,3.01,.38
06/01/2022,09:30,21.92,4.05,7.5,7.05,81.5,2.59,2.9,.33
06/01/2022,09:45,21.99,4.02,7.49,6.97,80.8,2.48,3.25,.35
06/01/2022,10:00,22.03,4.06,7.49,6.97,80.8,2.63,3.19,.39
06/01/2022,10:15,22.07,4.24,7.5,6.99,81.1,2.73,3.5,.38
06/01/2022,10:30,22.11,4.17,7.49,6.95,80.7,2.91,3.23,.38
06/01/2022,10:45,22.15,4.27,7.5,7.03,81.7,2.89,3.54,.43
06/01/2022,11:00,22.19,4.29,7.5,6.98,81.2,2.85,4.23,.48
06/01/2022,11:15,22.24,4.22,7.48,6.86,79.89,2.97,3.54,.4
06/01/2022,11:30,22.29,4.33,7.5,6.96,81.2,2.93,3.87,.42
06/01/2022,11:45,22.33,4.39,7.5,7.02,81.9,3.03,3.84,.44
06/01/2022,12:00,22.32,4.29,7.49,6.93,80.8,2.96,3.81,.42
06/01/2022,12:15,22.36,4.4,7.5,7,81.8,2.98,3.86,.47
06/01/2022,12:30,22.45,4.77,7.53,7.11,83.3,3.39,4.11,.5
06/01/2022,12:45,22.44,4.68,7.53,7.08,82.9,3.3,3.96,.49
06/01/2022,13:00,22.48,4.63,7.53,7.19,84.1,3.43,4.74,.57
06/01/2022,13:15,22.53,4.71,7.52,7.11,83.3,3.68,4.77,.57
06/01/2022,13:30,22.48,4.77,7.52,7.08,83,3.75,4.93,.56
06/01/2022,13:45,22.6,4.76,7.51,7.03,82.6,3.73,5.02,.62
06/01/2022,14:00,22.66,4.95,7.48,6.74,79.21,4.04,4.7,.64
06/01/2022,14:15,22.48,4.6,7.52,7.1,83.1,3.34,4.06,.54
06/01/2022,14:30,22.43,4.64,7.51,7.06,82.6,3.69,5.44,.65
06/01/2022,14:45,22.41,4.61,7.51,7.25,84.8,3.86,5.2,.66
06/01/2022,15:00,22.26,4.53,7.59,7.59,88.5,3.28,4.6,.62
06/01/2022,15:15,22.25,4.57,7.62,7.78,90.7,3.11,5.1,.69
06/01/2022,15:30,22.24,4.57,7.62,7.75,90.3,3.14,5.46,.65
06/01/2022,15:45,22.18,4.53,7.62,7.77,90.5,3.23,5.47,.61
06/01/2022,16:00,22.16,4.63,7.62,7.75,90.2,3.23,6.75,.68
06/01/2022,16:15,22.21,4.72,7.62,7.74,90.2,3.58,5.54,.69
06/01/2022,16:30,22.17,4.7,7.62,7.77,90.4,3.54,6.58,.83
06/01/2022,16:45,22.09,4.63,7.63,7.83,91,3.18,6.25,.8
06/01/2022,17:00,22.14,4.8,7.64,7.87,91.6,4.06,7.44,.76
06/01/2022,17:15,22,4.6,7.64,7.88,91.4,3.23,6.45,.82
06/01/2022,17:30,21.94,4.6,7.66,7.95,92.1,3.04,6.09,.77
06/01/2022,17:45,21.94,4.71,7.67,8.01,92.8,3.2,6.79,.82
06/01/2022,18:00,21.93,4.63,7.66,7.99,92.6,3.16,5.72,.74
06/01/2022,18:15,21.93,4.54,7.63,7.83,90.6,3.37,5.76,.68
06/01/2022,18:30,22,4.62,7.61,7.72,89.6,3.64,5.55,.72
06/01/2022,18:45,21.87,4.47,7.62,7.75,89.6,3.16,5.89,.75
06/01/2022,19:00,21.89,4.49,7.62,7.75,89.7,3.22,5.87,.72
06/01/2022,19:15,21.82,4.43,7.62,7.77,89.8,3.07,5.94,.73
06/01/2022,19:30,21.75,4.38,7.62,7.77,89.6,3.02,5.94,.72
06/01/2022,19:45,21.7,4.36,7.62,7.74,89.2,3.59,5.77,.66
06/01/2022,20:00,21.65,4.36,7.62,7.75,89.3,3.36,5.8,.75
06/01/2022,20:15,21.6,4.35,7.61,7.72,88.7,3.03,5.55,.68
06/01/2022,20:30,21.56,4.35,7.61,7.72,88.7,3.21,5.43,.71
06/01/2022,20:45,21.48,4.28,7.61,7.68,88.1,2.95,5.33,.67
06/01/2022,21:00,21.41,4.22,7.6,7.65,87.6,2.89,5.04,.63
06/01/2022,21:15,21.39,4.23,7.6,7.62,87.2,2.95,5.05,.64
06/01/2022,21:30,21.52,4.23,7.56,7.38,84.7,2.82,4.82,.62
06/01/2022,21:45,21.56,4.21,7.53,7.25,83.3,2.97,4.54,.58
06/01/2022,22:00,21.45,4.2,7.56,7.39,84.7,2.8,4.49,.59
06/01/2022,22:15,21.65,4.22,7.52,7.18,82.6,3.03,4.16,.57
06/01/2022,22:30,21.39,4.19,7.55,7.34,84.1,3.36,4.42,.57
06/01/2022,22:45,21.51,4.26,7.52,7.12,81.7,3.64,4.43,.56
06/01/2022,23:00,21.48,4.26,7.53,7.18,82.4,3.51,4.53,.57
06/01/2022,23:15,21.45,4.29,7.52,7.15,81.9,3.83,3.88,.5
06/01/2022,23:30,21.44,4.32,7.52,7.12,81.7,3.85,4.55,.6
06/01/2022,23:45,21.41,4.31,7.52,7.09,81.2,3.23,4.2,.56
06/02/2022,00:00,21.44,4.42,7.52,7.04,80.7,3.34,4.31,.51
06/02/2022,00:15,21.33,4.39,7.51,7,80.1,3.58,4.43,.59
06/02/2022,00:30,21.37,4.39,7.51,6.94,79.51,3.64,4.54,.56
06/02/2022,00:45,21.4,4.51,7.51,6.88,78.91,3.58,4.44,.55
06/02/2022,01:00,21.43,4.55,7.5,6.88,78.88,4.19,4.91,.65
06/02/2022,01:15,21.31,4.48,7.5,6.84,78.27,3.66,4.48,.56
06/02/2022,01:30,21.18,4.36,7.49,6.81,77.71,3.59,4.15,.51
06/02/2022,01:45,21.21,4.37,7.49,6.78,77.38,3.69,4.08,.55
06/02/2022,02:00,21.17,4.41,7.49,6.77,77.22,3.64,4.06,.56
06/02/2022,02:15,21.11,4.34,7.48,6.74,76.75,3.62,3.94,.49
06/02/2022,02:30,21.16,4.4,7.48,6.69,76.34,3.88,3.96,.52
06/02/2022,02:45,21.12,4.38,7.48,6.68,76.12,3.7,3.72,.5
06/02/2022,03:00,21.1,4.37,7.47,6.65,75.71,3.62,3.95,.5
06/02/2022,03:15,21.12,4.42,7.47,6.58,75.01,3.73,3.89,.52
06/02/2022,03:30,21.08,4.42,7.46,6.52,74.31,3.79,4.08,.52
06/02/2022,03:45,21.09,4.43,7.46,6.46,73.6,3.82,3.87,.53
06/02/2022,04:00,21.05,4.39,7.46,6.5,73.96,3.56,3.79,.53
06/02/2022,04:15,21.02,4.41,7.46,6.45,73.37,3.72,3.72,.52
06/02/2022,04:30,21.01,4.4,7.45,6.44,73.26,3.88,3.65,.45
06/02/2022,04:45,20.95,4.42,7.45,6.42,72.98,3.6,3.66,.5
06/02/2022,05:00,21.14,4.53,7.44,6.28,71.64,4.21,4.76,.47
06/02/2022,05:15,20.94,4.46,7.45,6.34,72.03,3.93,3.9,.51
06/02/2022,05:30,21.02,4.53,7.44,6.25,71.12,3.76,3.74,.48
06/02/2022,05:45,21.03,4.53,7.44,6.26,71.31,3.79,3.49,.45
06/02/2022,06:00,20.85,4.41,7.45,6.37,72.2,3.51,3.46,.44
06/02/2022,06:15,20.88,4.47,7.44,6.24,70.79,3.65,3.29,.43
06/02/2022,06:30,20.81,4.39,7.44,6.25,70.82,3.46,3.11,.44
06/02/2022,06:45,20.81,4.36,7.43,6.19,70.17,3.54,3.32,.43
06/02/2022,07:00,20.69,4.37,7.43,6.16,69.63,3.51,3.22,.42
06/02/2022,07:15,20.72,4.27,7.42,6.15,69.53,3.26,2.9,.4
06/02/2022,07:30,20.58,4.16,7.43,6.24,70.37,3.23,2.62,.36
06/02/2022,07:45,20.51,4.1,7.43,6.23,70.14,3.28,2.64,.38
06/02/2022,08:00,20.37,3.93,7.42,6.23,69.88,2.98,2.18,.29
06/02/2022,08:15,20.4,3.85,7.41,6.13,68.78,2.82,2.11,.31
06/02/2022,08:30,20.35,3.84,7.41,6.17,69.1,2.83,2.1,.28
06/02/2022,08:45,20.38,3.88,7.4,6.06,67.97,2.89,2.42,.29
06/02/2022,09:00,20.35,3.83,7.39,6.04,67.74,2.85,2.08,.29
06/02/2022,09:15,20.35,3.75,7.38,5.95,66.71,2.82,2.07,.3
06/02/2022,09:30,20.5,3.5,7.37,5.96,66.94,2.49,1.95,.29
06/02/2022,09:45,20.57,3.26,7.34,5.79,65.05,2.54,1.77,.26
06/02/2022,10:00,20.58,3.29,7.34,5.69,63.94,2.6,1.8,.25
06/02/2022,10:15,20.73,3.17,7.31,5.44,61.26,2.77,1.95,.29
06/02/2022,10:30,20.82,3.14,7.29,5.29,59.72,2.82,1.95,.27
06/02/2022,10:45,20.88,3.11,7.29,5.22,58.99,2.82,2.04,.3
06/02/2022,11:00,20.89,3.14,7.29,5.26,59.48,2.87,2.09,.3
06/02/2022,11:15,20.89,3.19,7.31,5.41,61.16,2.76,1.89,.27
06/02/2022,11:30,20.99,3.22,7.3,5.31,60.14,3.06,1.93,.29
06/02/2022,11:45,20.98,3.2,7.3,5.32,60.28,3.09,2.01,.3
06/02/2022,12:00,21.11,3.26,7.29,5.26,59.74,3.11,1.93,.26
06/02/2022,12:15,21.14,3.33,7.3,5.26,59.74,3.07,2.02,.28
06/02/2022,12:30,21.23,3.23,7.28,5.15,58.57,2.94,1.93,.28
06/02/2022,12:45,21.09,3.3,7.3,5.33,60.44,2.92,2.12,.3
06/02/2022,13:00,21.22,3.25,7.29,5.23,59.53,3.06,1.89,.27
06/02/2022,13:15,21.21,3.24,7.3,5.27,59.89,3.01,1.95,.26
06/02/2022,13:30,21.24,3.26,7.29,5.25,59.8,2.93,2.08,.28
06/02/2022,13:45,21.24,3.25,7.3,5.29,60.18,2.9,1.96,.31
06/02/2022,14:00,21.22,3.27,7.3,5.32,60.47,2.85,2.15,.28
06/02/2022,14:15,21.18,3.37,7.31,5.4,61.43,3.12,2.25,.28
06/02/2022,14:30,21.17,3.52,7.31,5.34,60.71,3.11,2.28,.31
06/02/2022,14:45,21.18,3.49,7.31,5.35,60.85,2.95,2.3,.36
06/02/2022,15:00,21.18,3.42,7.31,5.4,61.41,3.01,2.14,.29
06/02/2022,15:15,21.18,3.44,7.31,5.4,61.42,2.79,2.22,.32
06/02/2022,15:30,21.19,3.52,7.31,5.39,61.36,2.92,2.31,.34
06/02/2022,15:45,21.08,3.38,7.35,5.82,66.09,2.85,2.09,.3
06/02/2022,16:00,21.1,3.4,7.36,5.85,66.41,2.71,2.33,.33
06/02/2022,16:15,21.01,3.4,7.37,6.03,68.41,2.68,2.32,.3
06/02/2022,16:30,21.09,3.52,7.36,5.95,67.6,2.75,2.22,.31
06/02/2022,16:45,21.05,3.59,7.39,6.15,69.77,2.8,2.34,.32
06/02/2022,17:00,21,3.48,7.4,6.27,71.09,2.72,2.66,.35
06/02/2022,17:15,21.01,3.52,7.39,6.23,70.65,2.75,2.81,.37
06/02/2022,17:30,21.05,3.5,7.4,6.28,71.23,2.88,2.58,.35
06/02/2022,17:45,21.03,3.62,7.39,6.23,70.68,2.84,2.44,.34
06/02/2022,18:00,20.93,3.47,7.42,6.44,72.9,2.79,2.76,.4
06/02/2022,18:15,20.86,3.48,7.42,6.48,73.24,2.72,2.77,.36
06/02/2022,18:30,20.84,3.49,7.43,6.56,74.12,2.8,2.72,.38
06/02/2022,18:45,20.83,3.62,7.45,6.64,75.01,2.62,3.07,.42
06/02/2022,19:00,20.82,3.7,7.45,6.66,75.24,2.66,3.28,.44
06/02/2022,19:15,20.79,3.57,7.44,6.52,73.66,2.7,2.77,.37
06/02/2022,19:30,20.77,3.74,7.45,6.61,74.68,2.68,3.27,.44
06/02/2022,19:45,20.76,3.86,7.45,6.65,75.11,2.81,3.32,.43
06/02/2022,20:00,20.7,3.66,7.44,6.58,74.17,2.62,3.4,.45
06/02/2022,20:15,20.67,3.56,7.43,6.47,72.89,2.72,3.2,.43
06/02/2022,20:30,20.69,3.6,7.42,6.4,72.19,2.63,2.89,.42
06/02/2022,20:45,20.69,3.53,7.41,6.28,70.76,2.7,3.04,.45
06/02/2022,21:00,20.61,3.46,7.4,6.23,70.06,2.7,2.87,.43
06/02/2022,21:15,20.59,3.5,7.4,6.22,69.94,2.6,2.93,.43
06/02/2022,21:30,20.52,3.42,7.4,6.21,69.77,2.7,2.75,.41
06/02/2022,21:45,20.54,3.5,7.4,6.19,69.51,2.81,2.78,.45
06/02/2022,22:00,20.55,3.57,7.4,6.15,69.09,2.69,2.6,.41
06/02/2022,22:15,20.44,3.45,7.4,6.2,69.56,2.5,2.69,.4
06/02/2022,22:30,20.41,3.39,7.39,6.13,68.63,2.57,2.45,.38
06/02/2022,22:45,20.39,3.4,7.39,6.11,68.4,2.57,2.33,.4
06/02/2022,23:00,20.38,3.42,7.39,6.13,68.66,2.67,2.28,.36
06/02/2022,23:15,20.39,3.42,7.39,6.15,68.86,2.35,2.27,.36
06/02/2022,23:30,20.41,3.45,7.39,6.13,68.65,2.56,2.37,.36
06/02/2022,23:45,20.41,3.45,7.39,6.11,68.45,2.64,2.17,.33
06/03/2022,00:00,20.4,3.42,7.39,6.08,68.12,2.42,2.24,.36
06/03/2022,00:15,20.47,3.47,7.38,5.99,67.23,2.71,2.45,.37
06/03/2022,00:30,20.51,3.52,7.36,5.88,66.09,3.05,2.12,.36
06/03/2022,00:45,20.44,3.46,7.36,5.79,64.94,2.98,2.29,.36
06/03/2022,01:00,20.29,3.4,7.37,5.82,65.09,2.49,2.38,.33
06/03/2022,01:15,20.21,3.29,7.37,5.95,66.37,2.32,2.05,.29
06/03/2022,01:30,20.17,3.3,7.37,5.94,66.23,2.42,2.11,.32
06/03/2022,01:45,20.15,3.3,7.37,5.94,66.14,2.54,2.25,.33
06/03/2022,02:00,20.12,3.28,7.37,5.92,65.89,2.52,2.09,.35
06/03/2022,02:15,20.08,3.3,7.37,5.9,65.7,2.38,1.98,.29
06/03/2022,02:30,20.09,3.33,7.36,5.87,65.34,2.55,1.99,.33
06/03/2022,02:45,20.07,3.35,7.36,5.85,65.12,2.35,2.16,.31
06/03/2022,03:00,20.03,3.34,7.37,5.86,65.18,2.38,2.04,.27
06/03/2022,03:15,20.01,3.36,7.37,5.86,65.09,2.51,2.07,.35
06/03/2022,03:30,19.99,3.37,7.37,5.86,65.14,2.57,2,.3
06/03/2022,03:45,20.01,3.4,7.36,5.81,64.54,2.47,2.11,.32
06/03/2022,04:00,19.95,3.4,7.37,5.84,64.83,2.5,1.97,.32
06/03/2022,04:15,19.89,3.38,7.37,5.88,65.17,2.28,1.76,.3
06/03/2022,04:30,19.86,3.39,7.37,5.87,65.05,2.35,1.78,.24
06/03/2022,04:45,19.88,3.41,7.36,5.81,64.47,2.5,1.97,.29
06/03/2022,05:00,19.92,3.45,7.36,5.76,63.94,2.45,1.78,.3
06/03/2022,05:15,19.85,3.45,7.36,5.76,63.88,2.42,2.04,.32
06/03/2022,05:30,19.83,3.45,7.36,5.79,64.11,2.43,1.93,.26
06/03/2022,05:45,19.81,3.46,7.36,5.8,64.17,2.35,2.1,.33
06/03/2022,06:00,19.82,3.48,7.36,5.77,63.93,2.51,1.65,.25
06/03/2022,06:15,19.77,3.47,7.37,5.8,64.17,2.46,1.94,.28
06/03/2022,06:30,19.77,3.5,7.37,5.8,64.22,2.36,1.89,.31
06/03/2022,06:45,19.72,3.5,7.37,5.83,64.48,2.31,1.62,.3
06/03/2022,07:00,19.69,3.5,7.37,5.85,64.62,2.32,1.67,.27
06/03/2022,07:15,19.65,3.49,7.37,5.86,64.69,2.27,1.73,.26
06/03/2022,07:30,19.58,3.46,7.38,5.93,65.39,2.21,1.7,.27
06/03/2022,07:45,19.61,3.48,7.38,5.89,65.01,2.31,1.69,.26
06/03/2022,08:00,19.61,3.51,7.38,5.9,65.08,2.25,1.6,.25
06/03/2022,08:15,19.59,3.55,7.38,5.86,64.61,2.21,1.76,.22
06/03/2022,08:30,19.57,3.55,7.38,5.93,65.41,2.21,1.66,.25
06/03/2022,08:45,19.59,3.56,7.38,5.9,65.1,2.22,1.49,.25
06/03/2022,09:00,19.57,3.55,7.38,5.94,65.49,2.27,1.61,.27
06/03/2022,09:15,19.58,3.45,7.36,5.77,63.59,2.14,1.57,.24
06/03/2022,09:30,19.65,3.44,7.34,5.67,62.57,2.13,1.64,.24
06/03/2022,09:45,19.63,3.42,7.35,5.68,62.69,2.11,1.49,.25
06/03/2022,10:00,19.49,3.32,7.38,5.95,65.43,2.07,1.71,.24
06/03/2022,10:15,19.51,3.29,7.37,5.88,64.75,2.21,1.4,.24
06/03/2022,10:30,19.46,3.25,7.38,5.97,65.56,2.21,1.59,.24
06/03/2022,10:45,19.51,3.29,7.38,5.94,65.4,2.02,1.43,.24
06/03/2022,11:00,19.51,3.27,7.38,5.97,65.7,2.17,1.46,.24
06/03/2022,11:15,19.56,3.29,7.38,5.92,65.24,2.23,1.51,.25
06/03/2022,11:30,19.64,3.36,7.37,5.86,64.67,2.32,1.54,.26
06/03/2022,11:45,19.69,3.39,7.36,5.75,63.56,2.34,1.37,.26
06/03/2022,12:00,19.75,3.43,7.36,5.7,63.04,2.66,1.5,.24
06/03/2022,12:15,19.75,3.37,7.36,5.8,64.17,2.53,1.49,.24
06/03/2022,12:30,19.74,3.37,7.37,5.81,64.23,2.71,1.48,.23
06/03/2022,12:45,19.68,3.23,7.39,6.09,67.18,2.22,1.47,.27
06/03/2022,13:00,19.75,3.32,7.38,5.98,66.13,2.18,1.6,.25
06/03/2022,13:15,19.77,3.31,7.38,6.03,66.68,2.34,1.53,.3
06/03/2022,13:30,19.81,3.31,7.39,6.06,67.07,2.18,1.51,.25
06/03/2022,13:45,19.89,3.36,7.38,5.96,66.13,2.21,1.52,.25
06/03/2022,14:00,19.95,3.34,7.39,6.08,67.53,2.36,1.46,.25
06/03/2022,14:15,20.02,3.35,7.4,6.16,68.43,2.32,1.5,.26
06/03/2022,14:30,20.07,3.38,7.41,6.26,69.7,2.12,1.52,.26
06/03/2022,14:45,20.18,3.44,7.41,6.28,70.04,2.18,1.53,.27
06/03/2022,15:00,20.27,3.47,7.41,6.27,70.07,2.1,1.59,.26
06/03/2022,15:15,20.34,3.48,7.42,6.31,70.61,2.14,1.47,.23
06/03/2022,15:30,20.4,3.53,7.4,6.18,69.22,2.3,1.5,.24
06/03/2022,15:45,20.45,3.55,7.38,5.9,66.14,2.76,1.61,.26
06/03/2022,16:00,20.44,3.55,7.37,5.81,65.19,2.66,1.47,.24
06/03/2022,16:15,20.56,3.6,7.35,5.55,62.46,2.59,1.41,.27
06/03/2022,16:30,20.74,3.65,7.37,5.81,65.59,2.38,1.3,.28
06/03/2022,16:45,20.74,3.72,7.39,5.92,66.83,2.37,1.49,.26
06/03/2022,17:00,20.83,3.64,7.4,6.03,68.2,2.41,1.48,.26
06/03/2022,17:15,20.85,3.73,7.38,5.85,66.24,2.61,1.51,.27
06/03/2022,17:30,20.93,3.74,7.38,5.89,66.73,2.48,1.49,.23
06/03/2022,17:45,20.96,3.78,7.36,5.81,65.83,2.68,1.45,.24
06/03/2022,18:00,20.99,3.65,7.38,5.86,66.43,2.53,1.49,.19
06/03/2022,18:15,20.95,3.67,7.38,5.89,66.76,2.89,1.44,.22
06/03/2022,18:30,20.94,3.64,7.41,6.15,69.68,2.56,1.57,.23
06/03/2022,18:45,20.89,3.68,7.42,6.17,69.8,2.43,1.93,.28
06/03/2022,19:00,20.9,3.74,7.43,6.25,70.77,2.41,1.82,.27
06/03/2022,19:15,20.88,3.76,7.43,6.24,70.62,2.48,2.06,.27
06/03/2022,19:30,20.82,3.68,7.42,6.2,70.09,2.51,1.95,.3
06/03/2022,19:45,20.74,3.53,7.41,6.17,69.64,2.66,2.1,.28
06/03/2022,20:00,20.82,3.64,7.41,6.08,68.72,2.71,2.18,.31
06/03/2022,20:15,20.86,3.74,7.41,6.12,69.27,2.55,2.43,.33
06/03/2022,20:30,20.73,3.58,7.42,6.16,69.45,2.65,2.47,.34
06/03/2022,20:45,20.66,3.51,7.42,6.23,70.15,2.7,2.36,.34
06/03/2022,21:00,20.72,3.65,7.41,6.15,69.38,2.61,2.4,.32
06/03/2022,21:15,20.61,3.5,7.42,6.19,69.6,2.74,2.18,.31
06/03/2022,21:30,20.61,3.53,7.41,6.12,68.83,2.82,2.2,.32
06/03/2022,21:45,20.53,3.48,7.42,6.2,69.64,2.61,2.15,.31
06/03/2022,22:00,20.49,3.47,7.42,6.21,69.72,2.79,2.09,.32
06/03/2022,22:15,20.45,3.48,7.42,6.24,70,2.63,2.25,.33
06/03/2022,22:30,20.41,3.49,7.42,6.24,69.88,2.57,2.34,.34
06/03/2022,22:45,20.37,3.5,7.43,6.28,70.37,2.68,2.16,.37
06/03/2022,23:00,20.33,3.5,7.43,6.31,70.56,2.7,2.24,.34
06/03/2022,23:15,20.31,3.51,7.43,6.31,70.58,2.73,2.21,.36
06/03/2022,23:30,20.31,3.44,7.41,6.18,69.14,2.59,1.99,.35
06/03/2022,23:45,20.32,3.45,7.41,6.16,68.94,2.69,1.91,.32
06/04/2022,00:00,20.33,3.44,7.41,6.09,68.17,2.74,2.03,.32
06/04/2022,00:15,20.34,3.44,7.4,6.07,67.89,2.68,1.8,.3
06/04/2022,00:30,20.33,3.42,7.4,6.06,67.82,2.92,1.95,.29
06/04/2022,00:45,20.33,3.4,7.4,6.05,67.71,2.86,1.98,.31
06/04/2022,01:00,20.25,3.39,7.41,6.05,67.54,2.93,1.85,.32
06/04/2022,01:15,20.29,3.33,7.4,6.01,67.15,2.89,1.89,.31
06/04/2022,01:30,20.28,3.3,7.39,5.98,66.84,2.96,1.81,.29
06/04/2022,01:45,20.25,3.31,7.39,5.92,66.09,3.11,1.69,.34
06/04/2022,02:00,20.17,3.24,7.39,5.96,66.45,2.83,1.82,.29
06/04/2022,02:15,20.22,3.26,7.37,5.81,64.83,3.08,1.81,.3
06/04/2022,02:30,20.31,3.34,7.34,5.4,60.34,3.73,1.89,.32
06/04/2022,02:45,20.26,3.34,7.35,5.54,61.87,3.74,1.98,.31
06/04/2022,03:00,20.18,3.32,7.37,5.73,63.92,3.95,1.63,.27
06/04/2022,03:15,20.12,3.32,7.37,5.76,64.1,3.89,1.79,.29
06/04/2022,03:30,20.21,3.35,7.36,5.62,62.73,4.27,1.82,.29
06/04/2022,03:45,20.18,3.4,7.36,5.56,62.07,3.8,1.9,.31
06/04/2022,04:00,20.02,3.32,7.38,5.84,64.9,3.26,1.82,.32
06/04/2022,04:15,20.13,3.39,7.36,5.69,63.39,3.87,1.63,.28
06/04/2022,04:30,20,3.38,7.36,5.55,61.69,4.24,1.52,.26
06/04/2022,04:45,20.01,3.36,7.36,5.67,63,3.95,1.57,.31
06/04/2022,05:00,19.99,3.37,7.36,5.58,62.02,3.32,1.65,.34
06/04/2022,05:15,19.89,3.29,7.38,5.86,64.92,3.67,1.78,.32
06/04/2022,05:30,19.97,3.37,7.37,5.72,63.52,3.42,1.87,.29
06/04/2022,05:45,19.85,3.3,7.39,5.88,65.18,3.26,1.59,.3
06/04/2022,06:00,19.87,3.39,7.38,5.82,64.56,3.26,1.78,.32
06/04/2022,06:15,19.83,3.32,7.38,5.85,64.78,3.33,1.77,.26
06/04/2022,06:30,19.78,3.3,7.38,5.87,64.89,3.19,1.82,.28
06/04/2022,06:45,19.75,3.25,7.38,5.89,65.13,3.13,1.57,.3
06/04/2022,07:00,19.67,3.18,7.39,5.94,65.52,2.77,1.56,.23
06/04/2022,07:15,19.66,3.18,7.39,5.95,65.6,2.88,1.52,.25
06/04/2022,07:30,19.67,3.19,7.39,5.96,65.78,2.78,1.56,.26
06/04/2022,07:45,19.7,3.24,7.38,5.9,65.14,2.69,1.35,.26
06/04/2022,08:00,19.63,3.18,7.38,5.92,65.27,2.71,1.43,.29
06/04/2022,08:15,19.75,3.36,7.37,5.82,64.33,2.69,1.33,.23
06/04/2022,08:30,19.7,3.28,7.38,5.81,64.17,2.76,1.38,.23
06/04/2022,08:45,19.78,3.41,7.37,5.79,64.03,2.74,1.31,.2
06/04/2022,09:00,19.64,3.16,7.38,5.85,64.46,2.57,1.43,.25
06/04/2022,09:15,19.86,3.31,7.36,5.68,62.88,2.83,1.38,.25
06/04/2022,09:30,19.78,3.32,7.36,5.75,63.57,2.84,1.46,.27
06/04/2022,09:45,19.76,3.46,7.37,5.68,62.87,2.56,1.4,.24
06/04/2022,10:00,19.9,3.63,7.37,5.69,63.13,2.69,1.36,.27
06/04/2022,10:15,19.8,3.03,7.37,5.82,64.39,2.56,1.34,.23
06/04/2022,10:30,20.05,3.81,7.37,5.69,63.45,2.76,1.5,.31
06/04/2022,10:45,20.09,3.74,7.37,5.68,63.26,2.69,1.45,.25
06/04/2022,11:00,20.17,3.94,7.37,5.7,63.7,2.74,1.53,.3
06/04/2022,11:15,20.3,4.21,7.37,5.62,63.04,3.02,1.76,.28
06/04/2022,11:30,20.33,4.12,7.37,5.63,63.12,3,1.64,.3
06/04/2022,11:45,20.39,4.22,7.37,5.61,63.01,3.11,1.57,.27
06/04/2022,12:00,20.48,4.35,7.36,5.5,61.96,3.14,1.64,.31
06/04/2022,12:15,20.5,3.87,7.38,5.74,64.5,2.93,1.49,.29
06/04/2022,12:30,20.61,4.05,7.38,5.68,63.98,3.07,1.5,.25
06/04/2022,12:45,20.75,3.7,7.38,5.81,65.55,2.99,1.48,.25
06/04/2022,13:00,21.06,3.46,7.39,5.93,67.27,2.81,1.31,.2
06/04/2022,13:15,21.5,3.38,7.42,6.15,70.34,2.7,1.28,.17
06/04/2022,13:30,21.39,3.6,7.4,5.92,67.62,3.39,1.42,.24
06/04/2022,13:45,21.63,3.62,7.43,6.27,72.03,2.8,1.42,.27
06/04/2022,14:00,21.75,3.71,7.44,6.39,73.55,2.76,1.45,.33
06/04/2022,14:15,21.81,3.71,7.45,6.44,74.22,2.83,1.38,.2
06/04/2022,14:30,21.88,3.72,7.43,6.3,72.65,3.48,1.52,.22
06/04/2022,14:45,21.94,3.81,7.41,6.2,71.61,3.27,1.58,.25
06/04/2022,15:00,21.99,3.82,7.42,6.22,71.98,3.36,1.65,.23
06/04/2022,15:15,22.1,3.83,7.43,6.36,73.72,3.31,1.63,.3
06/04/2022,15:30,22.22,3.76,7.45,6.51,75.66,3.23,1.67,.32
06/04/2022,15:45,22.28,3.81,7.45,6.61,76.87,3.16,1.76,.27
06/04/2022,16:00,22.4,3.72,7.48,6.78,78.97,2.98,1.79,.3
06/04/2022,16:15,22.39,3.77,7.48,6.8,79.2,3.08,1.7,.27
06/04/2022,16:30,22.43,3.79,7.49,6.8,79.38,3.33,1.79,.26
06/04/2022,16:45,22.48,3.75,7.5,6.87,80.2,3.3,1.86,.28
06/04/2022,17:00,22.48,3.81,7.5,6.89,80.4,3.36,1.84,.31
06/04/2022,17:15,22.45,3.86,7.5,6.89,80.4,3.25,1.84,.28
06/04/2022,17:30,22.43,3.66,7.51,7,81.6,3.42,1.9,.24
06/04/2022,17:45,22.42,3.75,7.51,6.94,80.9,3.36,2.45,.34
06/04/2022,18:00,22.39,3.84,7.51,6.96,81.1,3.17,2.18,.32
06/04/2022,18:15,22.38,3.84,7.51,6.97,81.3,3.24,2.04,.28
06/04/2022,18:30,22.34,3.88,7.52,7.02,81.8,3.19,2.22,.35
06/04/2022,18:45,22.35,3.81,7.52,7.05,82.1,3.18,2.33,.35
06/04/2022,19:00,22.32,3.84,7.52,7.01,81.6,3.09,2.37,.37
06/04/2022,19:15,22.3,3.88,7.51,6.97,81.1,3.29,2.34,.35
06/04/2022,19:30,22.26,3.99,7.5,6.86,79.76,3.43,2.55,.37
06/04/2022,19:45,22.24,4.11,7.48,6.67,77.57,3.73,2.63,.41
06/04/2022,20:00,22.24,4.18,7.47,6.68,77.69,3.68,3.18,.38
06/04/2022,20:15,22.24,4.13,7.47,6.68,77.74,4.03,2.63,.34
06/04/2022,20:30,22.24,4.14,7.47,6.69,77.87,3.82,3.07,.4
06/04/2022,20:45,22.25,4.28,7.46,6.49,75.62,3.87,3.19,.4
06/04/2022,21:00,22.23,4.08,7.47,6.62,76.95,3.8,2.93,.37